Location: Alafon
(8.4500°N, 4.2333°E)
Time: 18:56:11
(UTC+00:00)

Vanguard 2 - Pass Details

Date: 05 August 2021
Orbit: 553 x 2937 km, 32.9° (Epoch: 27 September)

Event Time Altitude Azimuth Distance (km) Brightness Sun altitude
Rises 07:38:19 0° 326° (NNW) 3,282 10.6 28.5°
Reaches altitude 10° 07:40:57 10° 342° (NNW) 2,597 10.3 29.1°
Maximum altitude 07:45:57 24° 35° (NE) 2,250 10.9 30.3°
Drops below altitude 10° 07:53:05 10° 84° (E) 3,852 12.6 32.0°
Sets 07:58:02 0° 96° (E) 5,326 12.8 33.2°
